Weather History for KONL - December, 2012

Change the Weather History Date:

Thursday, December 6, 2012

  Actual Average Record
Temperature  
Mean Temperature 45 °F -  
Max Temperature 54 °F 35 °F 61 °F (1963)
Min Temperature 35 °F 15 °F -18 °F (1972)
Degree Days  
Heating Degree Days 20    
Moisture  
Dew Point 23 °F    
Average Humidity 49    
Maximum Humidity 66    
Minimum Humidity 31    
Precipitation  
Precipitation 0.00 in - - ()
Sea Level Pressure  
Sea Level Pressure 29.98 in    
Wind  
Wind Speed 11 mph (NNW)    
Max Wind Speed 22 mph    
Max Gust Speed 28 mph    
Visibility 10 miles    
Events      
Averages and records for this station are not official NWS values.
T = Trace of Precipitation, MM = Missing Value Source: NWS Daily Summary

Daily Weather History Graph

Daily Weather History Graph

Search for Another Location

Airport or City:

Trip Planner

Search our weather history database for the weather conditions in past years. The results will help you decide how hot, cold, wet, or windy it might be!

Date:

Astronomy

Dec. 06, 2012 Rise Set
Actual Time 7:50 AM CST 5:01 PM CST
Civil Twilight 7:18 AM CST 5:33 PM CST
Nautical Twilight 6:43 AM CST 6:08 PM CST
Astronomical Twilight 6:09 AM CST 6:42 PM CST
Moon No Moon Rise 12:36 PM CST (12/6)
Length of Visible Light 10h 14m
Length of Day
9h 11m
Waning Gibbous, 49% of the Moon is Illuminated
Dec 6
Waning Gibbous
Dec 13
New
Dec 19
First Quarter
Dec 28
Full
Jan 4
Last Quarter

Hourly Weather History & Observations

Time (CST) Temp. Windchill Dew Point Humidity Pressure Visibility Wind Dir Wind Speed Gust Speed Precip Events Conditions
12:15 AM 54.5 °F - 24.3 °F 31% 29.74 in 10.0 mi SSW 13.8 mph - N/A   Scattered Clouds
12:35 AM 53.8 °F - 24.6 °F 32% 29.75 in 10.0 mi SW 8.1 mph - N/A   Scattered Clouds
12:55 AM 53.6 °F - 25.0 °F 33% 29.76 in 10.0 mi SW 6.9 mph - N/A   Clear
7:35 AM 40.6 °F 38.6 °F 23.9 °F 51% 29.95 in 10.0 mi NNW 3.5 mph - N/A   Overcast
7:55 AM 41.5 °F 36.4 °F 24.4 °F 51% 29.95 in 10.0 mi NNW 8.1 mph - N/A   Overcast
8:15 AM 41.5 °F 37.8 °F 25.2 °F 52% 29.96 in 10.0 mi NW 5.8 mph - N/A   Overcast
8:35 AM 43.2 °F 39.0 °F 24.8 °F 48% 29.97 in 10.0 mi NNW 6.9 mph - N/A   Overcast
8:55 AM 44.8 °F 38.7 °F 22.8 °F 42% 29.97 in 10.0 mi NNW 12.7 mph 17.3 mph N/A   Overcast
9:15 AM 45.5 °F 39.2 °F 22.1 °F 40% 29.98 in 10.0 mi North 13.8 mph - N/A   Overcast
9:35 AM 45.5 °F 38.6 °F 22.3 °F 40% 29.99 in 10.0 mi NNW 16.1 mph 21.9 mph N/A   Overcast
9:55 AM 45.0 °F 36.6 °F 22.5 °F 41% 30.00 in 10.0 mi NNW 21.9 mph 25.3 mph N/A   Overcast
10:15 AM 45.5 °F 38.3 °F 22.3 °F 40% 30.00 in 10.0 mi NNW 17.3 mph - N/A   Overcast
10:35 AM 45.7 °F 39.1 °F 20.1 °F 36% 30.01 in 10.0 mi NNW 15.0 mph 21.9 mph N/A   Overcast
10:55 AM 45.5 °F 37.8 °F 18.5 °F 34% 30.01 in 10.0 mi NNW 19.6 mph - N/A   Overcast
11:15 AM 46.6 °F - 17.6 °F 32% 30.01 in 10.0 mi NNW 19.6 mph - N/A   Overcast
11:35 AM 46.6 °F - 17.4 °F 31% 30.01 in 10.0 mi NNW 16.1 mph 21.9 mph N/A   Overcast
11:55 AM 45.7 °F 38.3 °F 17.2 °F 32% 30.00 in 10.0 mi NNW 18.4 mph - N/A   Overcast
12:15 PM 45.1 °F 37.3 °F 17.6 °F 33% 30.00 in 10.0 mi NW 19.6 mph 23.0 mph N/A   Overcast
12:35 PM 43.7 °F 35.7 °F 18.3 °F 36% 30.00 in 10.0 mi NW 18.4 mph 24.2 mph N/A   Overcast
12:55 PM 44.1 °F 36.8 °F 19.2 °F 37% 29.99 in 10.0 mi NNW 16.1 mph - N/A   Overcast
1:15 PM 44.2 °F 36.7 °F 18.3 °F 35% 29.98 in 10.0 mi NNW 17.3 mph 25.3 mph N/A   Overcast
1:35 PM 44.6 °F 36.9 °F 18.1 °F 35% 29.99 in 10.0 mi NNW 18.4 mph 24.2 mph N/A   Overcast
1:55 PM 44.2 °F 37.3 °F 17.6 °F 34% 29.98 in 10.0 mi NNW 15.0 mph 23.0 mph N/A   Overcast
2:15 PM 44.4 °F 36.9 °F 18.3 °F 35% 29.98 in 10.0 mi NW 17.3 mph 26.5 mph N/A   Overcast
2:35 PM 43.7 °F 35.2 °F 23.9 °F 46% 29.98 in 10.0 mi NNW 20.7 mph 26.5 mph N/A   Overcast
2:55 PM 44.1 °F 35.7 °F 20.1 °F 39% 29.98 in 10.0 mi NNW 20.7 mph 27.6 mph N/A   Overcast
3:15 PM 43.3 °F 35.8 °F 21.6 °F 42% 29.99 in 10.0 mi NW 16.1 mph - N/A   Overcast
3:35 PM 42.3 °F 36.3 °F 25.5 °F 52% 29.99 in 10.0 mi NNW 10.4 mph - N/A   Overcast
3:55 PM 42.4 °F 36.5 °F 26.6 °F 54% 29.99 in 10.0 mi NNW 10.4 mph - N/A   Overcast
4:15 PM 42.8 °F 36.6 °F 27.3 °F 54% 29.99 in 10.0 mi North 11.5 mph - N/A   Overcast
4:35 PM 42.3 °F 36.8 °F 28.0 °F 57% 29.99 in 10.0 mi North 9.2 mph - N/A   Overcast
4:55 PM 41.5 °F 35.4 °F 26.2 °F 55% 29.98 in 10.0 mi NNW 10.4 mph - N/A   Overcast
5:15 PM 40.8 °F 34.5 °F 25.2 °F 54% 29.98 in 10.0 mi NNW 10.4 mph - N/A   Overcast
5:35 PM 40.5 °F 35.8 °F 24.6 °F 53% 29.97 in 10.0 mi NNW 6.9 mph - N/A   Overcast
5:55 PM 40.1 °F 36.1 °F 24.8 °F 54% 29.98 in 10.0 mi NNW 5.8 mph - N/A   Overcast
6:15 PM 39.7 °F 35.6 °F 25.2 °F 56% 29.98 in 10.0 mi NNW 5.8 mph - N/A   Overcast
6:35 PM 39.2 °F 35.9 °F 25.5 °F 58% 29.98 in 10.0 mi NNW 4.6 mph - N/A   Overcast
6:55 PM 38.7 °F 35.2 °F 25.9 °F 60% 29.98 in 10.0 mi NNW 4.6 mph - N/A   Overcast
7:15 PM 38.3 °F 34.8 °F 26.1 °F 61% 29.99 in 10.0 mi North 4.6 mph - N/A   Overcast
7:35 PM 37.8 °F 33.3 °F 26.2 °F 63% 29.99 in 10.0 mi NNW 5.8 mph - N/A   Overcast
7:55 PM 37.6 °F 31.6 °F 26.6 °F 65% 29.99 in 10.0 mi North 8.1 mph - N/A   Overcast
8:15 PM 37.4 °F 32.8 °F 26.6 °F 65% 30.00 in 10.0 mi North 5.8 mph - N/A   Overcast
8:35 PM 37.8 °F 34.2 °F 26.6 °F 64% 30.00 in 10.0 mi North 4.6 mph - N/A   Overcast
8:55 PM 37.9 °F 34.4 °F 25.7 °F 61% 30.00 in 10.0 mi North 4.6 mph - N/A   Overcast
9:15 PM 37.4 °F 33.8 °F 25.2 °F 61% 30.00 in 10.0 mi North 4.6 mph - N/A   Overcast
9:35 PM 37.4 °F - 24.8 °F 60% 30.00 in 10.0 mi Calm Calm - N/A   Overcast
9:55 PM 36.5 °F - 25.0 °F 63% 30.00 in 10.0 mi Calm Calm - N/A   Overcast
10:15 PM 36.7 °F - 24.8 °F 62% 30.00 in 10.0 mi Calm Calm - N/A   Overcast
10:35 PM 36.7 °F - 24.4 °F 61% 30.00 in 10.0 mi Calm Calm - N/A   Overcast
10:55 PM 36.7 °F - 24.4 °F 61% 30.00 in 10.0 mi Calm Calm - N/A   Overcast
11:15 PM 36.5 °F - 24.8 °F 63% 30.00 in 10.0 mi Calm Calm - N/A   Overcast
11:35 PM 36.1 °F - 25.0 °F 64% 30.00 in 10.0 mi Calm Calm - N/A   Overcast
11:55 PM 35.8 °F - 25.5 °F 66% 29.99 in 10.0 mi Calm Calm - N/A   Overcast